"Pseudo-MPEC" for CEAE7R2

Created 2026 Mar 9 22:35:21 UT using Find_Orb

Click here for an explanation of pseudo-MPECs

 
 Astrometry: 
     CEAE7R2*1C2026 03 08.37615111 35 47.080+06 05 53.52   ~389o 20.95GVNEOCPG96
     CEAE7R2 1C2026 03 08.38175411 35 44.574+06 04 23.34   ~389o 20.09GVNEOCPG96
     CEAE7R2 1C2026 03 08.38736011 35 42.133+06 02 54.35   ~389o 20.44GVNEOCPG96
     CEAE7R2  C2026 03 08.41128411 35 31.287+05 56 23.79   ~38AZ 20.3 GWNEOCPH01
     CEAE7R2  C2026 03 08.41588011 35 29.273+05 55 09.40   ~38AZ 20.3 GWNEOCPH01
     CEAE7R2  C2026 03 08.42941211 35 23.302+05 51 29.69   ~38AZ 19.8 GWNEOCPH01
     CEAE7R2  C2026 03 08.43273111 35 21.847+05 50 35.85   ~38AZ 20.2 GWNEOCPH01
     CEAE7R2 1C2026 03 08.45863611 35 10.604+05 43 37.34   ~38BK 20.29GVNEOCPI52
     CEAE7R2 1C2026 03 08.46029711 35 09.884+05 43 10.13   ~38BK 20.16GVNEOCPI52
     CEAE7R2 1C2026 03 08.46195411 35 09.179+05 42 43.20   ~38BK 20.12GVNEOCPI52
     CEAE7R2 1C2026 03 08.46361411 35 08.430+05 42 16.06   ~38BK 19.83GVNEOCPI52
     CEAE7R2 KB2026 03 08.94367 11 31 48.67 +03 30 43.9    ~38NK 20.1 GXNEOCPM45
     CEAE7R2 KB2026 03 08.94841 11 31 46.55 +03 29 25.5    ~38NK 19.8 GXNEOCPM45
     CEAE7R2 KB2026 03 08.95323 11 31 44.36 +03 28 05.4    ~38NK 20.2 GXNEOCPM45
     CEAE7R2 |C2026 03 09.11248011 30 39.050+02 45 27.80   ~393Z 19.4 GVNEOCP807
     CEAE7R2 |C2026 03 09.11866011 30 36.270+02 43 45.20   ~393Z 20.1 GVNEOCP807
     CEAE7R2 |C2026 03 09.12476011 30 33.500+02 42 03.10   ~393Z 19.8 GVNEOCP807
     CEAE7R2 KC2026 03 09.16784311 30 14.87 +02 28 35.1    ~394Z 20.0 GVNEOCPH21
     CEAE7R2 KC2026 03 09.17073211 30 13.59 +02 27 46.8    ~394Z 20.0 GVNEOCPH21

Station data:
(807) Cerro Tololo Observatory, La Serena  (S30.169133 W70.805900)  Chile.
   Observer R. Holmes. 0.61-m f/6.5 astrograph + CCD.
(G96) Mt. Lemmon Survey  (N32.442729 W110.788720)  US/Arizona.  Observer E.
   J. Christensen. Measurers T. Beuden, V. F. Carvajal, D. Fay, J. B.
   Fazekas, D. C. Fuls, A. R. Gibbs, A. D. Grauer, H. Gröller, J. K. Hogan,
   R. A. Kowalski, S. M. Larson, G. J. Leonard, D. Rankin, R. L. Seaman, F.
   C. Shelly, K. W. Wierzchoś. 1.5-m reflector + 10K CCD.
(H01) Magdalena Ridge Observatory, Socorro  (N33.984833 W107.189333)  US/New
   Mexico.  Observers W. H. Ryan, E. V. Ryan. Measurer W. H. Ryan. 2.4-m
   f/8.9 reflector + CCD.
(H21) Astronomical Research Observatory, Westfield  (N39.483054 W87.968270)
   US/Illinois.  Observer R. Holmes. Measurers S. Foglia, L. Buzzi, T.
   Linder, R. Holmes. 0.40-m f/5.32 astrograph + CCD.
(I52) Steward Observatory, Mt. Lemmon Station  (N32.442570 W110.788920)
   US/Arizona. Measurers T. Beuden, V. F. Carvajal, D. Fay, J. B. Fazekas, D.
   C. Fuls, A. R. Gibbs, A. D. Grauer, H. Gröller, J. K. Hogan, R. A.
   Kowalski, S. M. Larson, G. J. Leonard, D. Rankin, R. L. Seaman, F. C.
   Shelly, K. W. Wierzchoś. 1.0-m prime focus + CCD.
(M45) Starhopper Observatory, Sfantu Gheorghe  (N45.865494 E25.768890)
   Romania.  Observer F. Ursache. 0.41-m f/7.5 reflector + CMO.

Orbital elements:  CEAE7R2
   Perihelion 2026 Mar 23.533200 +/- 0.166 TT = 12:47:48.4 (JD 2461123.033200)
Epoch 2026 Mar  9.0 TT = JDT 2461108.5   Earth MOID: 0.1112      AutoNEOCP
M 356.008939909 +/- 0.08            (J2000 ecliptic)
n   0.274616744 +/- 0.00368         Peri.  195.365856 +/- 0.17
a   2.344146267 +/- 0.0209          Node   348.508500 +/- 0.0016
e   0.53384266 +/- 0.00393          Incl.   29.297082 +/- 0.10
P   3.58903                H 24.47  G  0.15   U  9.0
q 1.092740980 +/- 0.000621    Q 3.595551554 +/- 0.0413
From 19 observations 2026 Mar. 8-9 (19.1 hr); mean residual 0".32
Residuals in arcseconds: 
260308 G96  .08+  1.0-    260308 I52  .26-  .26+    260309 807  .28-  .31-    
260308 G96  .16-  .58-    260308 I52  .14-  .05+    260309 807  .10-  .22+    
260308 G96  .57+  1.1+    260308 I52  .18+  .06+    260309 807  .24-  .05-    
260308 H01  .13-  .09+    260308 I52  .15-  .09-    260309 H21  .10+  .04+    
260308 H01  .07+  .21+    260308 M45  .03+  .13-    260309 H21  .43+  .06+    
260308 H01  .09-  .02+    260308 M45  .17+  .10+    
260308 H01  .03-  .04+    260308 M45  .21-  .02-    

Ephemerides (geocentric):
Date (UTC) HH   RA             Dec           delta  r     elong  mag " sig PA
---- --------  ------------   ------------  ------ ------ -----  --- --------
2026 03 09 23  11 24 28.910   -01 13 55.87  .11233 1.1048 174.3 20.4 1.68  35
2026 03 10 00  11 24 10.563   -01 25 50.34  .11228 1.1047 174.1 20.4 1.81  35
2026 03 10 01  11 23 52.193   -01 37 45.49  .11222 1.1047 174.0 20.4 1.93  34
2026 03 10 02  11 23 33.802   -01 49 41.30  .11217 1.1046 173.8 20.4 2.06  34
2026 03 10 03  11 23 15.388   -02 01 37.75  .11211 1.1045 173.6 20.4 2.19  33
2026 03 10 04  11 22 56.953   -02 13 34.81  .11206 1.1045 173.5 20.4 2.33  33
2026 03 10 05  11 22 38.496   -02 25 32.46  .11201 1.1044 173.3 20.4 2.47  33
2026 03 10 06  11 22 20.017   -02 37 30.68  .11197 1.1043 173.1 20.4 2.62  32
2026 03 10 07  11 22 01.516   -02 49 29.44  .11192 1.1042 173.0 20.4 2.76  32
2026 03 10 08  11 21 42.994   -03 01 28.73  .11188 1.1042 172.8 20.4 2.92  32
2026 03 10 09  11 21 24.450   -03 13 28.51  .11184 1.1041 172.6 20.4 3.07  31
2026 03 10 10  11 21 05.885   -03 25 28.78  .11180 1.1040 172.4 20.4 3.23  31
2026 03 10 11  11 20 47.299   -03 37 29.49  .11176 1.1040 172.2 20.4 3.40  31
2026 03 10 12  11 20 28.691   -03 49 30.64  .11172 1.1039 172.0 20.5 3.56  31
2026 03 10 13  11 20 10.063   -04 01 32.19  .11168 1.1038 171.8 20.5 3.73  31
2026 03 10 14  11 19 51.413   -04 13 34.13  .11165 1.1037 171.7 20.5 3.91  30
2026 03 10 15  11 19 32.743   -04 25 36.43  .11162 1.1037 171.5 20.5 4.09  30
2026 03 10 16  11 19 14.052   -04 37 39.06  .11159 1.1036 171.3 20.5 4.27  30
2026 03 10 17  11 18 55.340   -04 49 42.01  .11156 1.1035 171.1 20.5 4.46  30
2026 03 10 18  11 18 36.608   -05 01 45.25  .11153 1.1035 170.9 20.5 4.65  30
2026 03 10 19  11 18 17.855   -05 13 48.76  .11150 1.1034 170.7 20.5 4.84  29
2026 03 10 20  11 17 59.082   -05 25 52.50  .11148 1.1033 170.5 20.5 5.04  29
2026 03 10 21  11 17 40.288   -05 37 56.47  .11146 1.1033 170.3 20.5 5.24  29
2026 03 10 22  11 17 21.475   -05 50 00.63  .11144 1.1032 170.1 20.5 5.45  29
2026 03 10 23  11 17 02.641   -06 02 04.96  .11142 1.1031 169.9 20.5 5.65  29
2026 03 11 00  11 16 43.787   -06 14 09.43  .11140 1.1031 169.7 20.5 5.87  29
2026 03 11 01  11 16 24.914   -06 26 14.03  .11139 1.1030 169.5 20.5 6.08  29
2026 03 11 02  11 16 06.021   -06 38 18.73  .11137 1.1029 169.3 20.6 6.30  29
2026 03 11 03  11 15 47.108   -06 50 23.51  .11136 1.1028 169.1 20.6 6.52  28
2026 03 11 04  11 15 28.176   -07 02 28.33  .11135 1.1028 168.9 20.6 6.75  28
2026 03 11 05  11 15 09.225   -07 14 33.18  .11134 1.1027 168.7 20.6 6.98  28
2026 03 11 06  11 14 50.254   -07 26 38.04  .11133 1.1026 168.5 20.6 7.22  28
2026 03 11 07  11 14 31.264   -07 38 42.87  .11133 1.1026 168.3 20.6 7.45  28
2026 03 11 08  11 14 12.255   -07 50 47.66  .11132 1.1025 168.1 20.6 7.69  28
2026 03 11 09  11 13 53.227   -08 02 52.38  .11132 1.1024 167.9 20.6 7.94  28
2026 03 11 10  11 13 34.180   -08 14 57.00  .11132 1.1024 167.6 20.6 8.19  28
2026 03 11 11  11 13 15.114   -08 27 01.51  .11132 1.1023 167.4 20.6 8.44  28
2026 03 11 12  11 12 56.030   -08 39 05.87  .11133 1.1023 167.2 20.6 8.69  28
2026 03 11 13  11 12 36.928   -08 51 10.07  .11133 1.1022 167.0 20.6 8.95  28
2026 03 11 14  11 12 17.807   -09 03 14.08  .11134 1.1021 166.8 20.6 9.21  28
2026 03 11 15  11 11 58.667   -09 15 17.88  .11134 1.1021 166.6 20.6 9.48  27
2026 03 11 16  11 11 39.510   -09 27 21.44  .11135 1.1020 166.4 20.7 9.74  27
2026 03 11 17  11 11 20.335   -09 39 24.73  .11137 1.1019 166.2 20.7 10.0  27
2026 03 11 18  11 11 01.141   -09 51 27.75  .11138 1.1019 166.0 20.7 10.3  27
2026 03 11 19  11 10 41.930   -10 03 30.45  .11139 1.1018 165.8 20.7 10.6  27
2026 03 11 20  11 10 22.702   -10 15 32.82  .11141 1.1017 165.6 20.7 10.8  27
2026 03 11 21  11 10 03.455   -10 27 34.83  .11143 1.1017 165.3 20.7 11.1  27
2026 03 11 22  11 09 44.192   -10 39 36.46  .11145 1.1016 165.1 20.7 11.4  27